Location: Newark
(49.5647°N, 8.2922°E)
Time: 18:23:49
(UTC+00:00)

Transit 2A - Pass Details

Date: 21 February 2020
Orbit: 597 x 962 km, 66.7° (Epoch: 03 April)

Event Time Altitude Azimuth Distance (km) Brightness Sun altitude
Rises 16:16:43 0° 295° (WNW) 2,875 9.7 5.1°
Reaches altitude 10° 16:20:57 10° 335° (NNW) 2,027 8.3 4.4°
Maximum altitude 16:22:00 11° 348° (NNW) 2,000 8.1 4.3°
Drops below altitude 10° 16:23:03 10° 2° (N) 2,064 8.0 4.1°
Sets 16:27:34 0° 40° (NE) 3,074 8.6 3.4°
